Weather reports worldwide

Advertisment
Emden, Germany (10200): temperature & dewpoint: 11.06.2019 20:00:00 - 17.06.2019 20:00:00 (CEST)Emden, Germany (10200): temperature 5cm & temperature -5cm: 11.06.2019 20:00:00 - 17.06.2019 20:00:00 (CEST)Emden, Germany (10200): temperature -20cm & temperature -100cm: 11.06.2019 20:00:00 - 17.06.2019 20:00:00 (CEST)Emden, Germany (10200): wind speed & gusts: 11.06.2019 20:00:00 - 17.06.2019 20:00:00 (CEST)Emden, Germany (10200): wind direction: 11.06.2019 20:00:00 - 17.06.2019 20:00:00 (CEST)Emden, Germany (10200): reduced air pressure: 11.06.2019 20:00:00 - 17.06.2019 20:00:00 (CEST)Emden, Germany (10200): visibility: 11.06.2019 20:00:00 - 17.06.2019 20:00:00 (CEST)Emden, Germany (10200): sunshine duration: 11.06.2019 20:00:00 - 17.06.2019 20:00:00 (CEST)Emden, Germany (10200): precipitation: 11.06.2019 20:00:00 - 17.06.2019 20:00:00 (CEST)
Date & Time tt [°C] td [°C] tt 5cm [°C] tt -5cm [°C] tt -20cm [°C] tt -100cm [°C] ff [km/h] ff [kn] fx [km/h] fx [kn] dd ppp [hPa] vv [km] sd [min] rr [mm]
17.06.2019 20:00:00 - - - - - - - - - - - - - - -
17.06.2019 19:00:00 24,8 12,5 26,0 26,4 20,3 13,8 8 4 15 8 SSE 1018,2 75 45 0,0
17.06.2019 18:00:00 25,0 12,5 26,9 27,4 20,0 13,8 10 5 20 11 SSE 1018,5 75 56 0,0
17.06.2019 17:00:00 24,6 12,2 27,5 27,8 19,5 13,8 13 7 24 13 S 1019,0 58 60 0,0
17.06.2019 16:00:00 24,2 12,7 28,0 27,8 19,1 13,8 11 6 24 13 S 1019,5 75 60 0,0
17.06.2019 15:00:00 23,8 12,7 27,6 27,2 18,6 13,8 11 6 26 14 S 1019,9 75 60 0,0
17.06.2019 14:00:00 23,2 13,2 27,4 26,3 18,1 13,8 11 6 26 14 S 1020,2 75 60 0,0
17.06.2019 13:00:00 22,5 13,6 26,1 25,0 17,7 13,8 14 8 26 14 S 1020,6 59 60 0,0
17.06.2019 12:00:00 21,4 12,6 24,8 23,5 17,3 13,7 16 8 25 13 S 1021,1 68 60 0,0
17.06.2019 11:00:00 20,8 12,7 23,9 21,9 17,0 13,7 13 7 21 11 S 1021,4 75 60 0,0
17.06.2019 10:00:00 20,2 11,7 23,2 19,8 16,8 13,7 8 4 16 9 S 1021,5 75 60 0,0
17.06.2019 09:00:00 18,7 13,2 21,5 17,6 16,8 13,7 8 5 12 6 SSE 1021,6 40 60 0,0
17.06.2019 08:00:00 16,6 13,2 18,2 15,7 16,9 13,7 9 5 15 8 SSE 1021,4 31 60 0,0
17.06.2019 07:00:00 14,6 12,5 14,3 14,5 17,1 13,7 8 5 14 8 S 1021,1 21 60 0,0
17.06.2019 06:00:00 13,2 12,2 12,5 14,3 17,3 13,7 8 4 14 7 S 1021,2 12 19 0,0
17.06.2019 05:00:00 13,7 12,9 12,7 14,5 17,5 13,7 8 5 15 8 S 1021,1 8 0 0,0
17.06.2019 04:00:00 13,4 12,8 12,5 14,8 17,7 13,7 10 5 16 8 SSE 1021,1 7 0 0,0
17.06.2019 03:00:00 13,5 12,7 12,5 15,1 17,9 13,7 11 6 16 9 SSE 1021,0 7 0 0,0
17.06.2019 02:00:00 13,5 12,8 12,6 15,5 18,1 13,7 12 6 18 10 SSE 1021,1 10 0 0,0
17.06.2019 01:00:00 13,7 12,8 12,9 16,1 18,3 13,7 11 6 16 9 SE 1021,1 17 0 0,0
17.06.2019 00:00:00 13,6 13,1 12,3 16,7 18,5 13,7 8 4 10 6 SE 1021,0 13 0 0,0
16.06.2019 23:00:00 14,3 13,8 12,9 17,6 18,6 13,7 7 4 10 5 SE 1021,0 11 0 0,0
16.06.2019 22:00:00 15,0 14,0 13,4 18,7 18,7 13,7 6 4 9 5 E 1020,7 15 22 0,0
16.06.2019 21:00:00 16,9 14,9 16,1 19,8 18,7 13,7 8 5 10 6 E 1020,6 39 23 0,0
16.06.2019 20:00:00 17,2 14,3 18,3 20,4 18,6 13,7 6 3 10 6 NE 1020,6 48 28 0,6
16.06.2019 19:00:00 17,1 14,2 18,3 20,7 18,6 13,7 8 4 16 9 N 1020,5 42 4 0,0
16.06.2019 18:00:00 17,0 13,9 17,7 21,2 18,4 13,7 14 7 23 12 NW 1020,1 46 0 0,0
16.06.2019 17:00:00 19,0 13,2 21,7 22,7 18,2 13,7 10 5 20 11 NW 1019,8 55 33 0,0
16.06.2019 16:00:00 18,3 14,5 21,0 21,7 18,0 13,7 13 7 35 19 NW 1019,7 51 8 0,2
16.06.2019 15:00:00 20,4 12,2 22,7 21,9 17,7 13,7 16 8 24 13 SW 1019,2 46 5 0,0
16.06.2019 14:00:00 19,5 12,2 20,0 22,1 17,4 13,7 14 8 24 13 W 1019,1 75 9 0,0
16.06.2019 13:00:00 19,6 12,1 20,2 22,6 16,9 13,7 18 10 33 18 WSW 1019,0 71 31 0,0
16.06.2019 12:00:00 20,9 13,0 23,9 22,2 16,6 13,7 15 8 29 15 SW 1018,6 47 60 0,0
16.06.2019 11:00:00 19,5 12,7 22,7 20,1 16,3 13,7 14 8 27 15 SSW 1018,2 42 60 0,0
16.06.2019 10:00:00 18,3 13,5 20,7 18,4 16,2 13,7 15 8 24 13 S 1018,1 36 60 0,0
16.06.2019 09:00:00 16,9 12,8 17,9 16,1 16,2 13,7 12 6 20 11 S 1018,0 45 60 0,0
16.06.2019 08:00:00 14,7 12,6 15,3 14,3 16,3 13,7 8 4 14 8 SSE 1017,8 23 57 0,0
16.06.2019 07:00:00 12,1 11,5 12,2 13,0 16,5 13,7 6 3 15 8 SSE 1017,6 9 10 0,0
16.06.2019 06:00:00 11,6 11,2 10,7 12,9 16,8 13,7 8 4 11 6 SSE 1017,5 6 0 0,0
16.06.2019 05:00:00 11,4 11,0 10,4 13,1 17,0 13,7 8 5 10 5 SSE 1017,4 7 0 0,0
16.06.2019 04:00:00 11,2 10,9 9,9 13,4 17,3 13,7 7 4 10 5 SSE 1017,2 4,5 0 0,0
16.06.2019 03:00:00 11,1 10,9 10,2 13,7 17,6 13,7 8 4 11 6 SSE 1017,5 3,4 0 0,0
16.06.2019 02:00:00 10,3 10,1 7,1 14,2 17,8 13,7 4 2 6 4 SE 1017,4 0,1 0 0,0
16.06.2019 01:00:00 10,5 10,4 7,6 14,9 18,1 13,7 4 2 6 3 SSE 1016,6 0,1 0 0,0
16.06.2019 00:00:00 11,7 11,5 8,2 15,7 18,3 13,7 4 2 5 3 S 1016,1 0,6 0 0,0
15.06.2019 23:00:00 12,9 12,0 9,6 16,8 18,4 13,7 3 2 8 4 W 1016,0 25 0 0,0
15.06.2019 22:00:00 14,0 12,1 13,1 17,8 18,5 13,7 6 3 17 9 W 1015,9 55 3 0,0
15.06.2019 21:00:00 15,3 12,2 14,5 18,9 18,5 13,7 12 6 24 13 WNW 1015,6 75 56 0,0
15.06.2019 20:00:00 17,1 12,7 18,2 20,0 18,4 13,7 17 9 33 18 W 1015,1 75 12 0,0
15.06.2019 19:00:00 16,9 14,0 17,7 20,7 18,2 13,7 20 11 35 19 W 1014,4 72 18 0,0
15.06.2019 18:00:00 17,5 13,9 18,9 20,6 18,1 13,7 25 14 39 21 W 1013,8 75 20 0,0
15.06.2019 17:00:00 16,9 14,3 19,2 20,2 17,9 13,7 23 13 44 24 W 1012,9 75 1 0,0
15.06.2019 16:00:00 17,2 14,8 18,3 21,0 17,7 13,7 27 14 44 24 W 1011,7 55 5 0,0
15.06.2019 15:00:00 18,8 15,8 19,6 21,4 17,6 13,7 9 5 14 8 SSW 1010,9 38 4 0,0
15.06.2019 14:00:00 18,3 16,1 20,1 19,1 17,5 13,7 9 5 15 8 W 1010,7 35 1 0,2
15.06.2019 13:00:00 16,5 15,6 16,7 17,5 17,6 13,7 8 4 21 11 W 1010,7 9 0 1,0
15.06.2019 12:00:00 16,5 16,0 16,4 17,3 17,6 13,7 15 8 24 13 W 1010,1 5 0 0,1
15.06.2019 11:00:00 16,6 16,0 16,7 17,3 17,6 13,7 13 7 21 11 WNW 1009,9 10 0 3,8
15.06.2019 10:00:00 16,6 16,0 16,7 17,1 17,7 13,6 9 5 24 13 NW 1010,3 3,1 0 3,0
15.06.2019 09:00:00 16,9 15,8 17,0 17,1 17,8 13,6 8 5 19 10 NNW 1008,5 21 0 0,0
15.06.2019 08:00:00 16,3 15,7 16,2 16,8 17,9 13,6 10 6 13 7 N 1009,3 7 0 2,4
15.06.2019 07:00:00 16,6 15,3 16,0 16,8 18,0 13,6 6 4 19 11 SE 1010,5 4,8 0 0,3
15.06.2019 06:00:00 17,0 14,4 16,4 16,8 18,1 13,6 10 6 14 8 E 1010,3 35 0 0,0
15.06.2019 05:00:00 16,8 14,4 16,0 16,9 18,3 13,6 9 5 15 8 E 1010,9 26 0 0,0
15.06.2019 04:00:00 17,2 14,4 16,6 16,9 18,4 13,6 8 4 22 12 ENE 1012,1 28 0 0,0
15.06.2019 03:00:00 17,3 14,4 16,4 16,9 18,6 13,6 8 4 16 9 NE 1012,1 32 0 0,0
15.06.2019 02:00:00 16,4 13,7 15,1 17,2 18,8 13,6 8 4 12 7 NE 1013,0 36 0 0,0
15.06.2019 01:00:00 15,4 13,3 13,9 17,6 19,0 13,6 8 4 11 6 NNE 1014,0 35 0 0,0
15.06.2019 00:00:00 16,1 13,3 14,4 18,3 19,2 13,6 7 4 13 7 NNE 1014,1 52 0 0,0
14.06.2019 23:00:00 18,5 13,8 15,9 19,2 19,3 13,6 6 4 19 10 NE 1014,5 59 0 0,0
14.06.2019 22:00:00 18,7 13,8 14,7 20,5 19,3 13,6 7 4 12 6 ENE 1014,1 74 18 0,0
14.06.2019 21:00:00 22,2 11,9 19,5 21,8 19,2 13,6 5 3 9 5 NE 1014,2 75 60 0,0
14.06.2019 20:00:00 23,0 11,2 24,3 23,1 19,0 13,6 6 3 19 11 SE 1014,2 75 60 0,0
14.06.2019 19:00:00 23,1 10,7 24,7 23,8 18,8 13,6 11 6 25 14 S 1014,2 72 60 0,0
14.06.2019 18:00:00 23,1 10,7 24,7 24,4 18,5 13,6 11 6 28 15 S 1014,3 75 60 0,0
14.06.2019 17:00:00 22,8 10,4 25,5 24,5 18,1 13,6 13 7 33 18 S 1014,7 71 60 0,0
14.06.2019 16:00:00 22,2 11,0 25,0 23,6 17,9 13,6 15 8 24 13 SSE 1014,9 69 53 0,0
14.06.2019 15:00:00 20,6 13,8 23,9 21,4 17,6 13,6 14 7 18 10 E 1015,5 54 3 0,2
14.06.2019 14:00:00 19,7 11,3 19,4 22,1 17,3 13,6 6 3 16 9 SSW 1016,0 71 1 0,0
14.06.2019 13:00:00 20,8 9,1 23,3 23,4 16,8 13,6 6 4 22 12 SSE 1015,3 75 30 0,0
14.06.2019 12:00:00 20,7 12,0 24,0 21,7 16,5 13,6 9 5 24 13 SE 1014,8 65 23 0,0
14.06.2019 11:00:00 19,9 11,6 24,6 20,9 16,2 13,6 14 8 21 11 SSE 1015,0 72 60 0,0
14.06.2019 10:00:00 18,6 12,5 21,4 18,4 16,0 13,6 16 8 22 12 SE 1014,9 61 48 0,0
14.06.2019 09:00:00 16,9 12,2 19,6 16,5 16,0 13,6 14 7 19 10 SSE 1015,0 70 57 0,0
14.06.2019 08:00:00 15,2 11,6 16,0 14,6 16,1 13,6 13 7 17 9 SSE 1015,0 50 43 0,0
14.06.2019 07:00:00 13,5 11,2 13,3 13,5 16,3 13,6 13 7 18 10 SE 1014,6 41 28 0,0
14.06.2019 06:00:00 11,6 10,2 11,3 13,0 16,5 13,6 8 5 13 7 SE 1014,2 47 0 0,0
14.06.2019 05:00:00 11,7 9,7 10,3 13,2 16,7 13,6 10 5 16 9 SSE 1013,8 66 0 0,0
14.06.2019 04:00:00 11,7 9,8 10,5 13,6 16,9 13,6 10 6 14 8 SSE 1013,5 65 0 0,0
14.06.2019 03:00:00 12,3 9,9 11,4 13,9 17,2 13,6 9 5 20 11 SSE 1013,6 75 0 0,0
14.06.2019 02:00:00 12,2 9,9 10,9 14,4 17,4 13,6 9 5 23 12 S 1013,6 75 0 0,0
14.06.2019 01:00:00 12,6 10,5 11,7 15,1 17,6 13,6 16 9 26 14 SSE 1013,6 75 0 0,1
14.06.2019 00:00:00 13,5 11,3 12,5 15,5 17,8 13,6 16 9 53 29 S 1013,2 31 0 0,5
13.06.2019 23:00:00 14,0 10,9 12,3 16,2 18,0 13,6 12 7 19 10 SSE 1012,7 75 0 0,0
13.06.2019 22:00:00 14,0 12,2 13,0 17,1 18,1 13,6 8 4 19 10 SE 1012,3 59 9 0,0
13.06.2019 21:00:00 14,9 12,1 13,9 17,6 18,2 13,5 8 4 30 16 S 1012,3 75 33 0,4
13.06.2019 20:00:00 13,6 11,0 12,5 18,7 18,1 13,5 19 11 56 31 S 1012,2 11 10 5,7
13.06.2019 19:00:00 19,9 7,5 20,6 20,7 18,0 13,5 16 8 38 20 S 1010,8 72 42 0,0
13.06.2019 18:00:00 20,3 6,8 21,9 21,3 17,8 13,5 21 12 43 23 SSW 1011,0 75 53 0,0
13.06.2019 17:00:00 19,5 6,9 19,7 21,8 17,5 13,5 22 12 42 23 S 1011,1 75 44 0,0
13.06.2019 16:00:00 20,3 8,0 22,7 22,1 17,2 13,5 21 11 46 25 S 1011,3 52 51 0,0
13.06.2019 15:00:00 18,7 8,0 19,7 22,0 16,9 13,5 26 14 43 23 S 1011,2 75 45 0,0
13.06.2019 14:00:00 19,3 8,8 22,9 21,3 16,6 13,5 21 11 41 22 S 1011,0 69 50 0,0
13.06.2019 13:00:00 18,5 9,7 22,2 20,4 16,3 13,5 20 11 39 21 SSW 1011,1 75 40 0,0
13.06.2019 12:00:00 17,6 9,8 20,9 19,3 16,0 13,5 23 12 48 26 SSW 1010,8 67 47 0,0
13.06.2019 11:00:00 17,2 10,4 19,9 18,0 15,8 13,5 21 11 42 23 S 1010,5 59 45 0,0
13.06.2019 10:00:00 15,9 10,1 17,3 17,1 15,7 13,5 23 12 43 23 S 1010,1 75 52 0,0
13.06.2019 09:00:00 16,0 10,9 18,2 15,6 15,7 13,5 19 10 35 19 S 1010,1 75 60 0,0
13.06.2019 08:00:00 14,8 10,2 16,3 13,9 15,8 13,5 14 8 29 16 S 1010,1 67 60 0,0
13.06.2019 07:00:00 12,9 9,9 13,5 12,7 16,0 13,5 16 9 24 13 SSE 1010,0 55 60 0,0
13.06.2019 06:00:00 11,5 9,6 10,8 12,3 16,2 13,5 10 5 17 9 SSE 1009,8 39 14 0,0
13.06.2019 05:00:00 11,8 9,5 9,6 12,6 16,4 13,5 8 4 15 8 SSE 1009,4 46 0 0,0
13.06.2019 04:00:00 12,3 9,4 10,8 13,0 16,6 13,5 9 5 21 11 S 1009,4 60 0 0,0
13.06.2019 03:00:00 13,1 9,7 11,6 13,5 16,8 13,5 13 7 21 11 S 1009,5 65 0 0,0
13.06.2019 02:00:00 14,1 10,5 12,5 13,9 17,0 13,5 11 6 22 12 S 1009,6 51 0 0,0
13.06.2019 01:00:00 14,5 10,9 12,9 14,4 17,2 13,5 10 5 28 15 S 1009,8 51 0 0,0
13.06.2019 00:00:00 14,8 11,5 13,2 14,9 17,3 13,5 11 6 22 12 S 1010,1 42 0 0,0
12.06.2019 23:00:00 15,5 12,0 13,8 15,5 17,4 13,5 11 6 29 16 SSW 1009,6 38 0 0,0
12.06.2019 22:00:00 16,4 11,9 15,1 16,3 17,5 13,5 16 9 31 17 SSW 1008,9 47 18 0,0
12.06.2019 21:00:00 16,9 12,6 15,9 17,2 17,5 13,5 16 9 36 19 SSW 1008,0 44 60 0,0
12.06.2019 20:00:00 16,8 13,5 17,5 17,8 17,5 13,5 21 11 40 22 SSW 1007,2 55 33 0,0
12.06.2019 19:00:00 16,5 15,2 16,5 17,7 17,5 13,4 19 10 37 20 S 1006,7 20 0 4,1
12.06.2019 18:00:00 17,3 16,4 17,4 17,8 17,5 13,4 9 5 17 9 E 1006,9 8 0 0,0
12.06.2019 17:00:00 16,8 16,3 17,0 17,4 17,5 13,4 10 6 19 10 E 1007,7 6 0 2,5
12.06.2019 16:00:00 16,1 15,5 16,2 17,3 17,5 13,4 11 6 19 10 ENE 1008,3 4,2 0 3,1
12.06.2019 15:00:00 15,9 15,3 16,0 17,4 17,4 13,4 9 5 21 11 NE 1008,4 4,1 0 6,9
12.06.2019 14:00:00 16,2 15,3 16,0 18,0 17,3 13,4 16 8 29 16 NE 1008,4 3,3 0 1,5
12.06.2019 13:00:00 17,8 14,4 18,9 18,7 17,2 13,4 21 11 29 16 NE 1008,5 31 0 0,0
12.06.2019 12:00:00 17,8 12,3 18,9 18,8 17,1 13,4 15 8 30 16 NNE 1009,7 50 13 0,0
12.06.2019 11:00:00 17,4 11,9 18,9 17,5 17,0 13,4 14 8 26 14 NNE 1009,9 53 0 0,0
12.06.2019 10:00:00 17,2 11,3 18,6 17,6 16,9 13,4 14 8 23 12 NNE 1010,0 46 19 0,0
12.06.2019 09:00:00 16,6 10,8 19,3 16,7 16,9 13,4 10 5 16 9 NNE 1010,2 36 60 0,0
12.06.2019 08:00:00 14,5 10,9 17,4 15,1 17,1 13,4 8 4 13 7 N 1010,1 31 60 0,0
12.06.2019 07:00:00 12,4 11,1 13,3 13,9 17,3 13,4 7 4 11 6 N 1009,7 17 42 0,0
12.06.2019 06:00:00 11,3 10,8 10,7 13,7 17,5 13,4 8 4 10 5 N 1010,8 9 0 0,0
12.06.2019 05:00:00 10,6 10,3 10,1 13,5 17,8 13,4 4 2 5 3 WNW 1011,5 7 0 0,0
12.06.2019 04:00:00 10,2 9,9 7,0 13,9 18,1 13,4 3 1 15 8 SE 1013,0 8 0 0,0
12.06.2019 03:00:00 9,9 9,5 8,0 14,4 18,4 13,4 5 3 8 4 E 1013,0 1,6 0 0,0
12.06.2019 02:00:00 10,9 10,0 9,5 15,0 18,7 13,4 4 2 11 6 NE 1012,1 19 0 0,0
12.06.2019 01:00:00 11,0 10,4 9,7 15,7 18,9 13,4 6 3 8 4 WNW 1012,1 11 0 0,0
12.06.2019 00:00:00 12,4 11,7 9,7 16,6 19,2 13,4 3 2 10 6 N 1012,2 18 0 0,0
11.06.2019 23:00:00 13,3 12,1 10,8 17,7 19,3 13,4 5 3 10 5 NNW 1013,0 13 0 0,0
11.06.2019 22:00:00 14,9 12,5 13,8 19,0 19,4 13,4 8 5 11 6 NW 1012,8 29 10 0,0
11.06.2019 21:00:00 16,8 12,4 16,4 20,2 19,3 13,4 8 4 16 9 WNW 1012,5 50 60 0,0
11.06.2019 20:00:00 17,8 11,5 19,0 21,9 19,2 13,4 10 5 22 12 W 1012,1 62 60 0,0

tt = temperature
td = dewpoint
tt 5cm = temperature 5cm
tt -5cm = temperature -5cm
tt -20cm = temperature -20cm
tt -100cm = temperature -100cm
ff = wind speed
fx = gusts
dd = wind direction
ppp = reduced air pressure
vv = visibility
sd = sunshine duration
rr = precipitation

Next stations